Погода в Тарнуве

Польша     50°00′45″N   20°59′17″E
темп.,
°C
ветер,
м/с
пор.,
м/с
влажн.,
%
обл.,
%
осадки,
мм/ч
давл.,
гПа
погр.,
м
1 марта, пн
пн101:00+2сз598989 0.0 1032474
04:00+2сз4893100 0.1 1033351
07:00+2сз2595100 0.1 1034256
10:00+3сз2490100 0.0 1035315
13:00+4сз4581100 0.1 1036557
16:00+4сз348074 0.0 1035512
19:00+1зсз119138 0.0 103622
22:00+1юз22910 0.0 103624
2 марта, вт
вт201:00+1зюз12920 0.0 103723
04:000зюз23920 0.0 103563
07:00+1зюз24860 0.0 1035116
10:00+6з47600 0.0 1034375
13:00+9зсз58560 0.0 1033508
16:00+9з49620 0.0 1032323
19:00+5з47750 0.0 1032132
22:00+3з33810 0.0 103345
3 марта, ср
ср301:00+2з23860 0.0 103425
04:00+1зюз22870 0.0 103222
07:00+2юз12840 0.0 103222
10:00+7зюз22650 0.0 1031311
13:00+10з23520 0.0 1029523
16:00+10сз00560 0.0 102623
19:00+7ююв226513 0.0 102623
22:00+5ююз2378100 0.0 102427
4 марта, чт
чт401:00+4ююз238275 0.0 102327
04:00+3ююз34820 0.0 102065
07:00+3ююз347926 0.0 101974
10:00+9юз365771 0.0 1016385
13:00+12з595183 0.0 10141193
16:00+11з4962100 0.0 1012535
19:00+7зюз3673100 0.0 1011129
22:00+7ю2278100 0.0 101035
5 марта, пт
пт501:00+7з41285100 0.7 1009711
04:00+4ссз6992100 3.7 1009610
07:00+2с6996100 5.2 1011471
10:000ссв5889100 1.1 1014570
13:00+2с566199 1.4 10161276
16:00+2с564795 0.0 10181846
19:00−1ссз366259 0.0 1021166
22:00−1сз36620 0.0 1024213